DELTA 1 DEB, 7979

Orbit data source: Space-Track

DELTA 1 DEB, 7979 is space debris in SSO originally from a launch on Sun, 23 Jul 1972 UTC launched from the Air Force Western Test Range (AFWTR). Debris objects in space refer to the collection of defunct objects orbiting the Earth. Examples of debris include non-operational satellites, rocket bodies, and fragments generated from explosions, collisions, or faulty payload assembly.

Loading next visibility...
Identifier
7979, 1972-058DA
Orbit
SSO
Country
Flag of USUS
Related business
Manufacturer
Unknown
Mission
Spacecraft
Bus & Motor
Unknown
Mass
Unknown
Launch date (UTC)
1972-07-23 (53 years ago)
Launch vehicle
Unknown
Launch site
Air Force Western Test Range (AFWTR)
Object type
Payload
Rocket body
Debris
Shape & HBR
Unknown shape, 0.2 m
Radar Cross Section
Medium (>0.1 m² and <1 m²)

Expand to show TLE details & history
Last TLE update: 11 hours ago

TLE from 11 hours ago
0 DELTA 1 DEB
1 07979U 72058DA  25351.93501441  .00000314  00000-0  21727-3 0  9997
2 07979  97.8492  44.3524 0401400 297.8926 243.9321 13.71838685516485
Epoch: 2025-12-17T22:26Z
TLE epoch observation values (Epoch: 2025-12-17T22:26:25.245Z)
Latitude
2.093°
Longitude
161.23667°
Altitude
1,134.978 km
Speed
7.216 km/s
True Right ascension
14h 58m 33s
True Declination
2° 04' 52"
Sunlit
Object was in daylight at epoch
Visualization orbit readout
Latitude
Unknown
Longitude
Unknown
Altitude
Unknown
Speed
Unknown
Apparent Right ascension
Unknown
Apparent Declination
Unknown
Sunlit
N/A
Visualization observer readout
Local Sidereal Time
08:07:19
Azimuth
Unknown
Elevation
Unknown
Doppler factor
Unknown
Orbital elements
Apogee altitude
1,285.919 km
Perigee altitude
694.392 km
Semi-major axis
7,368.292 km
Eccentricity
0.04014
Inclination
97.8492°
RAAN
44.3524°
Arg. of periapsis
297.8926°
True anomaly
239.89285°
Mean anomaly
243.9321°
Eccentric anomaly
241.90328°
Mean motion
3.43157 °/min
Orbital period
104.91 mins
BSTAR
0.00021727
Loading maneuver chart data...
Computing Atmospheric mass density...
Loading historical data...
Loading historical data...
Loading historical data...
Loading historical data...
Loading historical data...
Loading historical data...
Loading historical data...

Documentation

Showing up to 5 results
|